Flag for Germany Weather past 2 weeks in Würselen, North Rhine-Westphalia, Germany

Now
63 °F

Passing clouds.


Feels Like: 63 °F
Forecast: 51 / 65 °F
Wind: 16 mph from Southwest

Location: Geilenkirchen Airport

Current Time: Jul 28, 2015 at 9:50:23 PM

Latest Report: Jul 28, 2015 at 8:50 PM


Visibility: N/A

Pressure: 29.77 "Hg

Humidity: 56%

Dew point: 46 °F

Location of WürselenLocation

Historic Weather in Würselen — Graph

°F

Würselen temperature yesterday

Maximum temperature yesterday: 68 °F (at 4:50 PM)
Minimum temperature yesterday: 57 °F (at 12:50 AM)
Average temperature yesterday: 62 °F

Past Weeks' High & Low Weather Summary

 TemperatureHumidityPressure
High90 °F (Jul 17, 3:50 PM)100% (Jul 16, 5:50 AM)30.12 "Hg (Jul 16, 5:50 AM)
Low57 °F (Jul 20, 4:50 AM)36% (Jul 17, 3:50 PM)29.56 "Hg (Jul 27, 3:50 AM)
Average68 °F72%29.93 "Hg
* Reported Jul 13 7:50 PM — Jul 28 7:50 PM, Würselen, Weather by CustomWeather, © 2015

Note: Actual official high and low records may vary slightly from our data, if they occured in-between our weather recording intervals... More about our weather records

Advertising

Würselen weather history for previous 24 hours

 ConditionsComfort  
Time TempWeatherWind HumidityBarometerVisibility
7:50 PM
Tue, Jul 28
63 °FBroken clouds.16 mph56%29.77 "HgN/A
6:50 PM64 °FBroken clouds.17 mph52%29.77 "HgN/A
5:50 PM64 °FBroken clouds.17 mph60%29.77 "HgN/A
4:50 PM64 °FBroken clouds.20 mph56%29.77 "HgN/A
3:50 PM63 °FBroken clouds.13 mph64%29.77 "HgN/A
2:50 PM59 °FPartly sunny.9 mph77%29.74 "HgN/A
1:50 PM59 °FBroken clouds.22 mph72%29.77 "HgN/A
12:50 PM59 °FSprinkles. Broken clouds.17 mph77%29.74 "HgN/A
11:50 AM63 °FBroken clouds.20 mph59%29.71 "HgN/A
10:50 AM61 °FBroken clouds.17 mph68%29.74 "HgN/A
9:50 AM61 °FBroken clouds.16 mph68%29.71 "HgN/A
8:50 AM59 °FBroken clouds.18 mph72%29.71 "HgN/A
7:50 AM59 °FBroken clouds.15 mph72%29.71 "HgN/A
6:50 AM57 °FClear.16 mph72%29.68 "Hg10 mi
5:50 AM57 °FClear.17 mph72%29.68 "Hg10 mi
4:50 AM57 °FClear.15 mph67%29.68 "Hg10 mi
3:50 AM57 °FClear.14 mph72%29.68 "Hg10 mi
2:50 AM57 °FClear.14 mph72%29.68 "Hg10 mi
1:50 AM57 °FClear.15 mph72%29.68 "Hg10 mi
12:50 AM59 °FClear.18 mph68%29.68 "Hg10 mi
10:50 PM
Mon, Jul 27
63 °FClear.23 mph64%29.68 "Hg10 mi
9:50 PM64 °FPassing clouds.23 mph64%29.68 "HgN/A
Weather by CustomWeather, © 2015

See weather overviewHow to use our weather pages